DECAYED

STARLINK-1217, 45226 (Decayed)

Orbit data source: Space-Track

STARLINK-1217, 45226 was a payload satellite owned by SpaceX/Seattle (US) in LEO that was launched on Mon, 17 Feb 2020 UTC via an FALCON 9 launch vehicle from the Air Force Eastern Test Range (AFETR). Payload-class satellites include a variety of spacecraft equipped with specific instruments for various scientific and technological missions. These include communications satellites like Starlink; space stations such as the ISS; scientific satellites like the Hubble; Earth observation satellites from companies like Planet Labs, Umbra, and HawkEye 360; GPS; miniature CubeSats for education and research; and military/defense satellites.

Not visible in the next 10 days
Identifier
45226, 2020-012BA
Orbit
Decayed
Country
Flag of USUS
Related business
Manufacturer
SpaceX/Seattle
Mission
Decayed Commercial Communications
Bus & Motor
STARLINK, Unknown motor
Mass
260 kg wet, ~248 kg dry
Launch date (UTC)
2020-02-17 (7 years ago)
Launch vehicle
FALCON 9
Launch site
Air Force Eastern Test Range (AFETR)
Object type
Payload
Rocket body
Debris
Shape & HBR
Box + 1 Pan, 10.1 m
Radar Cross Section
13.562 m², Large (>1 m²)

Expand to show TLE details & history
Last TLE update: 11 months ago

TLE from 11 months ago
0 STARLINK-1217
1 45226U 20012BA  25293.20788828  .10869242  12439-4  33017-3 0  9990
2 45226  53.0256 207.9632 0005443 231.4906 128.5654 16.44822732315102
Epoch: 2025-10-20T04:59Z
TLE epoch observation values (Epoch: 2025-10-20T04:59:21.547Z)
Latitude
-0.00007°
Longitude
104.20986°
Altitude
156.151 km
Speed
7.812 km/s
True Right ascension
13h 51m 51s
True Declination
0° 00' 00"
Sunlit
Object was in daylight at epoch
Visualization orbit readout
Latitude
Unknown
Longitude
Unknown
Altitude
Unknown
Speed
Unknown
Apparent Right ascension
Unknown
Apparent Declination
Unknown
Sunlit
N/A
Visualization observer readout
Local Sidereal Time
03:12:15
Azimuth
Unknown
Elevation
Unknown
Doppler factor
Unknown
Orbital elements
Apogee altitude
156.851 km
Perigee altitude
149.741 km
Semi-major axis
6,531.433 km
Eccentricity
0.00054
Inclination
53.0256°
RAAN
207.9632°
Arg. of periapsis
231.4906°
True anomaly
128.61415°
Mean anomaly
128.5654°
Eccentric anomaly
128.58978°
Mean motion
4.11179 °/min
Orbital period
87.55 mins
BSTAR
0.00033017
Loading maneuver chart data...
Computing Atmospheric mass density...
Loading historical data...
Loading historical data...
Loading historical data...
Loading historical data...
Loading historical data...
Loading historical data...
Loading historical data...

Documentation

Showing up to 5 results
|